Regional Weather Roundup
Issued by NWS

Home | Current Version | Previous Version | Graphics & Text | Print | Product List | Glossary On
Versions: 1 2 3 4 5 6 7 8 9 10 11 12 13 14 15 16 17 18 19 20 21 22 23 24 25 26 27 28 29 30 31 32 33 34 35 36 37 38 39 40 41 42 43 44 45 46 47 48 49 50
544
ASUS44 KJAN 221710
RWRMS

MISSISSIPPI HOURLY WEATHER ROUNDUP
NATIONAL WEATHER SERVICE JACKSON MS
1200 PM CDT TUE JUL 22 2014

NOTE: "FAIR: INDICATES FEW OR NO CLOUDS BELOW 12,000 FEET WITH NO
SIGNIFICANT WEATHER AND/OR OBSTRUCTIONS TO VISIBILITY.

MSZ001>002-007>008-010>013-018>021-025>028-034>036-221800-
NORTHWEST MISSISSIPPI

CITY           SKY/WX    TMP DP  RH WIND       PRES   REMARKS
CLARKSDALE     FAIR      86  72  62 CALM      30.09S HX  92
CLEVELAND      FAIR      85  74  69 NE3       30.07S HX  92
GREENWOOD      SUNNY     88  70  55 CALM      30.06F HX  93
GREENVILLE     SUNNY     87  71  58 NE6       30.07S HX  93
GRENADA        FAIR      88  70  55 SE5       30.07S HX  92
OLIVE BRANCH   MOSUNNY   84  72  65 NE5       30.10R
OXFORD         FAIR      84  70  61 NE5       30.10S
TUNICA         SUNNY     86  70  58 CALM      30.09S HX  90
$$

MSZ003>006-009-014>017-022>024-029>033-037>039-221800-
NORTHEAST MISSISSIPPI

CITY           SKY/WX    TMP DP  RH WIND       PRES   REMARKS
BELMONT        FAIR      83  73  72 SE6       30.09F
COLUMBUS AFB   PTSUNNY   80  72  75 SE6       30.09S
CORINTH        PTSUNNY   84  72  65 CALM      30.08S
GOLDN TRIANGLE MOSUNNY   79  72  78 SE5       30.09F
STARKVILLE     FAIR      79  72  78 CALM      30.09S
TUPELO         CLOUDY    83  73  72 S9        30.08R
$$

MSZ040-058-221800-
CENTRAL MISSISSIPPI

CITY           SKY/WX    TMP DP  RH WIND       PRES   REMARKS
JACKSON INTL   PTSUNNY   87  72  60 E6        30.06F HX  93
JACKSON HAWKNS MOSUNNY   85  68  56 NE3       30.07S
MERIDIAN KEY   CLOUDY    84  72  67 E7        30.07S
MERIDIAN NAS   CLOUDY    82  73  74 E6        30.08F
RAYMOND        FAIR      86  82  89 NE3       30.06F HX 105
VICKSBURG        N/A    N/A N/A N/A MISG      30.06S
$$

MSZ059>079-221800-
SOUTH MISSISSIPPI

CITY           SKY/WX    TMP DP  RH WIND       PRES   REMARKS
BROOKHAVEN     FAIR      84  72  65 NE7       30.08F
COLUMBIA       FAIR      84  75  74 N6        30.04F HX  92
HATTIESBURG    MOSUNNY   89  73  59 VRB6      30.04F HX  97
MCCOMB         MOSUNNY   85  71  63 VRB6      30.06S HX  90
NATCHEZ        MOSUNNY   82  73  74 N3        30.07R
PINE BELT      PTSUNNY   84  72  65 E5        30.07F
$$

MSZ080>082-221800-
COASTAL MISSISSIPPI

CITY           SKY/WX    TMP DP  RH WIND       PRES   REMARKS
BAY ST LOUIS   MOSUNNY  N/A N/A N/A VRB5      30.03F
BILOXI         SUNNY     89  69  52 N1        30.03S HX  93
PASCAGOULA     PTSUNNY   87  73  62 NE3       30.03S HX  94
GULFPORT       MOSUNNY   91  68  46 W5        30.02F HX  95
$$



USA.gov is the U.S. government's official web portal to all federal, state and local government web resources and services.